Regional Weather Roundup
Issued by NWS State College, PA

Home | Current Version | Previous Version | Text Only | Print | Product List | Glossary Off
Versions: 1 2 3 4 5 6 7 8 9 10 11 12 13 14 15 16 17 18 19 20 21 22 23 24 25 26 27 28 29 30 31 32 33 34 35 36 37 38 39 40 41 42 43 44 45 46 47 48 49 50

000
ASUS41 KCTP 121203
RWRCTP

REGIONAL WEATHER ROUNDUP
NATIONAL WEATHER SERVICE STATE COLLEGE PA
700 AM EST FRI FEB 12 2016

Note: "fair" indicates few or no clouds below 12,000 feet with no
significant weather and/or obstructions to visibility.

* = STATION THAT DOES NOT REPORT PRECIPITATION /E.G. RAIN...SNOW...ETC/
    THUNDER OR FOG.

PAZ002>004-007>009-013>016-020>023-029>032-121300-
WESTERN PENNSYLVANIA

CITY           SKY/WX    TMP DP  RH WIND       PRES   REMARKS
ERIE           LGT SNOW  14   8  77 S13       30.12S WCI   0
MEADVILLE      CLOUDY     6   0  76 S7        30.08F WCI  -6
FRANKLIN*      CLOUDY     1  -8  66 S7        30.11S WCI -11
NEW CASTLE     CLOUDY     8   5  87 S3        30.16F
BEAVER COUNTY  CLOUDY    12   7  79 S5        30.14  WCI   4
BUTLER*        CLOUDY     5   1  85 CALM      30.17F
PITTSBURGH INT CLOUDY     7   2  80 CALM      30.15F
PITTSBURGH     CLOUDY     6   2  83 S8        30.15F WCI  -7
INDIANA*       CLOUDY     1  -2  85 CALM      30.17F
LATROBE        MOCLDY     3   0  85 CALM      30.18F
WASHINGTON CO* MOCLDY     1   0  92 CALM      30.16S
$$

PAZ004>006-010>012-017>019-024>028-033>037-041-042-045-046-049>053-121300-
CENTRAL PENNSYLVANIA

CITY           SKY/WX    TMP DP  RH WIND       PRES   REMARKS
BRADFORD       MOCLDY     4  -1  80 S8        30.01F WCI  -9
DUBOIS         CLEAR      1  -3  83 SW3       30.07F
CLEARFIELD     PTCLDY     3  -3  76 CALM      30.13F
JOHNSTOWN      CLOUDY     4  -5  66 SW6       30.05F WCI  -7
ALTOONA        CLEAR      5  -3  69 SW3       30.15F
STATE COLLEGE  CLEAR      7   3  85 CALM      30.16F
WILLIAMSPORT   CLEAR      9   1  70 MISG      30.22S
SELINSGROVE    CLEAR      0  -4  83 CALM      30.25S
FT INDIANTOWN  CLOUDY     4   0  83 CALM      30.26R
CAPITAL CITY   CLEAR     10   1  67 CALM      30.27S
HARRISBURG     CLOUDY     9   2  73 N5        30.26F WCI   1
YORK           CLOUDY    -9 -10  96 CALM      30.26S
$$

PAZ038>040-043-044-047-048-054-055-060>062-067>071-121300-
EASTERN PENNSYLVANIA

CITY           SKY/WX    TMP DP  RH WIND       PRES   REMARKS
SCRANTON       CLEAR      9   1  70 S5        30.16F WCI   1
MOUNT POCONO   CLEAR      2  -5  72 W7        30.06S WCI -11
ALLENTOWN      PTCLDY    10  -1  61 W5        30.25S WCI   2
QUAKERTOWN*    MOSUNNY    7   0  72 CALM      30.25S
READING        CLEAR     10   0  63 NW5       30.26S WCI   2
LANCASTER      CLOUDY     8   1  73 W5        30.27S WCI   0
COATESVILLE    CLOUDY     9   3  78 CALM      30.26R
POTTSTOWN      CLEAR      7   0  73 CALM      30.28S
BLUE BELL        N/A      9   5  85 CALM      30.27S
DOYLESTOWN     PTCLDY     8  -1  66 CALM      30.25S
WILLOW GROVE   NOT AVBL
NORTH PHILA    CLEAR     14   1  56 W5        30.31R WCI   6
PHILADELPHIA   PTCLDY    16   1  51 W6        30.32R WCI   7
$$



USA.gov is the U.S. government's official web portal to all federal, state and local government web resources and services.